User: anonymous
Location: *
(40.4270°N, 9.4940°E)
Time: 14:00:56
(UTC+02:00)
Language:

Okean 2 - Orbit

View from above orbital plane
View from above orbital plane
View from above satellite
View from above satellite

Ground track
Ground track

The orbit data is extracted from the following two-line orbital elements,

1 20510U 90018A   14110.21908713  .00004368  00000-0  38969-3 0  6877
2 20510 082.5185 197.5250 0011628 272.4393 145.4272 14.95716986308716
Epoch (UTC): 20 April 2014 05:15:29
Eccentricity: 0.0011628
inclination: 82.5185°
perigee height: 572 km
apogee height: 588 km
right ascension of ascending node: 197.5250°
argument of perigee: 272.4393°
revolutions per day: 14.95716986
mean anomaly at epoch: 145.4272°
orbit number at epoch: 30871

The dashed part of the orbit path shows where the satellite is in the earth's shadow,  

DLR